www.pogodaiklimat.ru

Погода и климат >> Архив погоды >> Узбекистан >> Юбилейная


ПОГОДА в Юбилейной

  • Прогноз погоды в Юбилейной
  • Монитор погоды в Юбилейной

АРХИВ ПОГОДЫ в Юбилейной

Время (UTC), дата Ветер
(напр.,м/с)
 
Видим.   Явления Облачность Т
(С)
Тd
(С)
f
(%)
Тe
(С)
Тes
(С)
Комфортность P
(гПа)
Po
(гПа)
Тmin
(С)
Tmax
(С)
R
(мм)
R24
(мм)
S
(см)
03 10.06 ЮВ 2 50 км 10/8 600 м
[Sc Ac und]
+18.3 +14.7 80 +19 +20 1013.3 967.6
06 10.06 В 2 50 км 10/8 600 м
[Sc Ac und]
+20.0 +13.7 67 +23 +24 комфорт 1013.8 968.3 +17.2 0.4
09 10.06 ЮЗ 2 10 км 8/3 600 м
[Cb calv Ac trans]
+22.5 +11.7 50 +25 +32 комфорт 1014.0 968.8
12 10.06 Ю 2 10 км 9/5 600 м
[Cb cap Ac trans]
+22.3 +10.0 46 +24 +25 комфорт 1013.4 968.2
15 10.06 В 2 10 км {ливн. осадки} 9/4 600 м
[Cb cap Ac trans]
+17.7 +14.2 80 +18 +18 1016.0 970.1 +23.9
18 10.06 СВ 1 н/о 10/8 600 м
[Cb cap Ac und]
+15.0 +12.3 84 +16 +16 1019.1 972.6 +23.9 0.3
21 10.06 штиль 0 н/о 9/0
[Ac und]
+14.4 +12.2 87 +14 +14 1018.8 972.1
00 11.06 С 1 10 км 9/0
[Ac und]
+13.1 +12.2 94 +13 +13 1018.5 971.8
03 11.06 В 1 50 км 6/0
[Ac lent Ci ing]
+17.8 +12.4 71 +19 +24 1017.8 971.5
06 11.06 ЮЗ 2 50 км 8/3
[Cb calv Ac lent]
+21.6 +10.5 49 +23 +29 комфорт 1016.5 971.0 +13.0
09 11.06 ЮЗ 2 50 км 4/3 600 м
[Cb calv Ac lent]
+24.6 +8.4 36 +25 +36 комфорт 1014.7 969.8
12 11.06 С 2 50 км 4/3 600 м
[Cb calv Ac lent]
+25.7 +9.8 37 +26 +30 жарко 1014.1 969.4
15 11.06 С 1 50 км 8/5 600 м
[Cb cap Ac trans]
+21.0 +12.5 58 +25 +25 комфорт 1015.2 969.8 +26.1
18 11.06 СВ 1 н/о 8/0
[Ac trans]
+18.4 +11.9 66 +20 +20 1016.5 970.6 +26.1
21 11.06 штиль 0 н/о 3/0
[Ac trans]
+17.9 +11.1 64 +18 +18 1016.8 970.5
00 12.06 СВ 1 10 км 3/0
[Ac lent]
+13.4 +10.7 84 +14 +14 1017.2 970.5
03 12.06 СВ 1 10 км 3/0
[Ac lent]
+20.0 +12.3 61 +23 +29 комфорт 1016.7 971.1
06 12.06 СВ 1 10 км 1/1 600 м
[Cb calv]
+24.8 +10.9 42 +26 +46 жарко 1015.5 970.5 +12.5
09 12.06 штиль 0 10 км 3/0
[Ac trans]
+22.5 +12.5 53 +25 +44 комфорт 1012.8 967.7 +29.1
12 12.06 штиль 0 50 км 3/3 600 м
[Cb calv Ac cuf]
+28.8 +10.5 32 +29 +34 жарко 1012.5 968.2
15 12.06 штиль 0 10 км 3/0
[Ac trans]
+22.5 +12.5 53 +25 +25 комфорт 1012.8 967.7 +29.1
21 12.06 штиль 0 н/о ясно +15.3 +12.2 82 +15 +15 1013.5 967.3
00 13.06 штиль 0 10 км ясно +13.4 +11.5 88 +13 +13 1013.5 967.0
03 13.06 СВ 1 50 км ясно +21.4 +12.4 56 +24 +32 комфорт 1012.5 967.2
06 13.06 В 1 50 км 1/1 600 м
[Cb calv]
+27.9 +10.4 34 +28 +48 жарко 1009.5 965.2 +13.3
09 13.06 ЮЗ 2 50 км 1/1 600 м
[Cb calv]
+31.0 +9.9 27 +31 +46 жарко 1007.2 963.5
12 13.06 штиль 0 50 км 1/1 600 м
[Cb calv]
+31.7 +10.0 26 +31 +37 жарко 1005.9 962.3
15 13.06 ЮЗ 1 50 км ясно +26.0 +17.0 58 +30 +30 душно 1005.9 961.7 +31.9
18 13.06 Ю 1 н/о ясно +17.5 +14.8 84 +19 +19 1006.6 961.0 +31.9
21 13.06 В 1 н/о ясно +15.0 +13.4 90 +15 +15 1006.5 960.6
00 14.06 штиль 0 10 км ясно +13.7 +12.8 94 +13 +13 1007.3 961.0
03 14.06 штиль 0 50 км ясно +21.5 +14.3 64 +24 +34 комфорт 1006.7 961.7
06 14.06 З 1 50 км 5/3 600 м
[Cb calv Ci ing]
+29.4 +11.7 34 +30 +45 жарко 1004.5 960.7 +13.3
09 14.06 Ю 1 10 км 3/3 600 м
[Cb calv Ac lent]
+32.4 +5.8 19 +30 +45 жарко 1002.7 959.3
12 14.06 В 1 50 км 1/1 600 м
[Cb calv]
+34.2 +10.9 24 +34 +39 очень
жарко
1001.7 958.5
15 14.06 В 1 10 км 9/3 600 м
[Cb calv Ac cuf]
+28.3 +18.1 54 +33 +33 очень
душно
1002.9 959.2 +35.0
18 14.06 З 1 н/о 9/6 600 м
[Cb cap Ac und]
+25.8 +9.9 37 +27 +27 жарко 1004.8 960.4 +35.0
21 14.06 З 1 н/о 3/0
[Ac trans]
+18.3 +13.3 73 +20 +20 1005.2 959.8
00 15.06 штиль 0 10 км 8/0
[Ac trans]
+17.1 +12.6 75 +17 +17 1005.7 960.1
03 15.06 СВ 1 50 км 8/0
[Ac trans Ci fib]
+22.4 +14.8 62 +26 +31 жарко 1005.5 960.7
06 15.06 В 1 10 км 10/0
[Ac lent Cs]
+30.0 +14.4 39 +32 +44 жарко 1004.9 961.3 +16.9
09 15.06 З 3 10 км 10/0
[Ac trans Cs]
+30.1 +12.3 33 +31 +39 жарко 1006.1 962.4
12 15.06 ЮЗ 4 50 км 9/0
[Ac trans]
+28.1 +10.7 34 +29 +30 жарко 1006.9 962.9
15 15.06 ЮЗ 2 50 км 9/0
[Ac cuf]
+27.2 +10.3 35 +28 +28 жарко 1007.1 962.9 +31.1
18 15.06 штиль 0 н/о 1/0
[Ac lent]
+19.3 +14.1 72 +21 +21 комфорт 1009.1 963.7 +31.1
21 15.06 штиль 0 н/о 3/0
[Ac trans]
+15.9 +11.2 74 +16 +16 1008.9 962.9
00 16.06 С 1 10 км 3/0
[Ac trans]
+15.2 +12.6 84 +16 +16 1009.3 963.3
03 16.06 СВ 1 50 км ясно +22.3 +13.3 57 +25 +34 комфорт 1009.5 964.6
15 16.06 ЮЗ 1 50 км 3/1 600 м
[Cb calv Ac lent]
+29.2 +15.0 42 +32 +32 душно 1005.4 961.6 +35.0
00 17.06 З 1 10 км 3/0
[Ac lent]
+15.4 +12.8 84 +16 +16 1007.6 961.7

 

Местоположение метеостанции Юбилейная (Андижанская область, Узбекистан): широта 40.75 долгота 71.58 высота над уровнем моря 440 м.

В архиве по умолчанию представлена погода в Юбилейной за последнюю неделю. Архивные данные за месяц целиком и за предыдущие месяцы, начиная с января 2011 года, Вы можете получить, выбрав интересующий диапазон дат из раскрывающегося списка и нажав кнопку "Ввод!".


*Определитесь, кто Вы:
робот инопланетянин человек

Внимание! Время в таблицах - всемирное. Для получения местного времени необходимо прибавить поправку, которая равна 5 ч.

Смотрите также архив погоды в соседних городах и на ближайших метеорологических станциях:

Погода в Намангане (Намаганская область, Узбекистан) (26 км)
Погода в Бозе (Андижанская область, Узбекистан) (30 км)
Погода в Папе (Намаганская область, Узбекистан) (41 км)
Погода в Фергане (Ферганская область, Узбекистан) (45 км)
Погода в Куве (Ферганская область, Узбекистан) (48 км)
Погода в Коканде (Ферганская область, Узбекистан) (58 км)
Погода в Андижан (Андижанская область, Узбекистан) (63 км)
Погода в Пача-Ате (Джалал-Абадская область, Киргизия) (93 км)
Погода в Шахимардане (Ферганская область, Узбекистан) (94 км)
Погода в Сарыканде (Андижанская область, Узбекистан) (95 км)

Пояснения к столбцам:

Ветер - указаны скорость ветра в м/с - средняя за 10 мин, порывы в срок и между сроками (в фигурных скобках) и направление, откуда дует ветер: С - северный, СВ - северо-восточный, В - восточный, ЮВ - юго-восточный, Ю - южный, ЮЗ - юго-западный, З - западный, СЗ - северо-западный.
Видимость - горизонтальная дальность видимости в метрах или километрах. При видимости от 1 до 10 км при отсутствии осадков обычно наблюдается дымка, при ухудшении видимости до 1 км и менее - туман. В сухую погоду видимость может ухудшаться дымом, пылью или мглою.
Явления - указаны атмосферные явления, наблюдавшиеся в срок или в последний час перед сроком; фигурными скобками обозначены явления, наблюдавшиеся между сроками (за 1-3 часа до срока); квадратными скобками обозначены град или гололедные отложения с указанием их диаметра в мм.
Облачность - указаны через наклонную черту общая и нижняя облачность в баллах и высота нижней границы облаков в метрах; квадратными скобками обозначены формы облаков: Ci - перистые, Cs - перисто-слоистые, Cc - перисто-кучевые, Ac - высококучевые, As - высокослоистые, Sc - слоисто-кучевые, Ns - слоисто-дождевые, Cu - кучевые, Cb - кучево-дождевые. Подробнее классификацию облаков см. в Атласе облаков (PDF).
T - Температура воздуха - температура, измеренная на высоте 2 м над землей.
Td - Температура точки росы - температура, при понижении до которой содержащийся в воздухе водяной пар достигнет насыщения.
f - Относительная влажность воздуха - влажноcть воздуха, измеренная на высоте 2 м над землей.
Te - Эффективная температура - температура, которую ощущает одетый по сезону человек в тени. Характеристика душности погоды. При расчете учитывается влияние влажности воздуха и скорости ветра на теплоощущения человека.
Tes - Эффективная температура на солнце - температура, которую ощущает человек, с поправкой на солнечный нагрев. Характеристика знойности погоды. Зависит от высоты солнца над горизонтом, облачности и скорости ветра. Ночью, в пасмурную погоду, а также при ветре 12 м/с и более поправка равна нулю.
P - Атмосферное давление - приведенное к уровню моря атмосферное давление.
Po - Атмосферное давление - измеренное на уровне метеостанции атмосферное давление.
Tmin - Минимальная температура - минимум температуры воздуха на высоте 2 м над землей.
Tmax - Максимальная температура - максимум температуры воздуха на высоте 2 м над землей.
R - Количество осадков - Количество выпавших осадков за период времени, мм. При наведении курсора мыши на число - период времени, за который выпало указанное количество осадков.
R24 - Количество осадков - Количество выпавших осадков за 24 часа, мм.
S - Снежный покров - Высота снежного покрова, см. При наведении курсора мыши на число - состояние снежного покрова и степень покрытия местности в баллах.